Weather History for KHAI - September, 2013

Change the Weather History Date:

Friday, September 13, 2013

  Actual Average Record
Temperature  
Mean Temperature 54 °F -  
Max Temperature 62 °F 76 °F 93 °F (1952)
Min Temperature 46 °F 53 °F 32 °F (1964)
Degree Days  
Heating Degree Days 11    
Growing Degree Days 4 (Base 50)    
Moisture  
Dew Point 44 °F    
Average Humidity 69    
Maximum Humidity 89    
Minimum Humidity 46    
Precipitation  
Precipitation 0.00 in - - ()
Sea Level Pressure  
Sea Level Pressure 30.11 in    
Wind  
Wind Speed 5 mph (North)    
Max Wind Speed 14 mph    
Max Gust Speed 21 mph    
Visibility 10 miles    
Events      
Averages and records for this station are not official NWS values.
T = Trace of Precipitation, MM = Missing Value Source: NWS Daily Summary

Daily Weather History Graph

Daily Weather History Graph

Search for Another Location

Airport or City:

Trip Planner

Search our weather history database for the weather conditions in past years. The results will help you decide how hot, cold, wet, or windy it might be!

Date:

Astronomy

Sep. 13, 2013 Rise Set
Actual Time 7:20 AM EDT 7:54 PM EDT
Civil Twilight 6:52 AM EDT 8:22 PM EDT
Nautical Twilight 6:19 AM EDT 8:56 PM EDT
Astronomical Twilight 5:45 AM EDT 9:30 PM EDT
Moon 3:48 PM EDT (9/13) 12:45 AM EDT (9/13)
Length of Visible Light 13h 30m
Length of Day
12h 34m
First Quarter, 61% of the Moon is Illuminated
Sep 13
First Quarter
Sep 19
Full
Sep 26
Last Quarter
Oct 4
New
Oct 11
First Quarter

Hourly Weather History & Observations

Time (EDT) Temp. Dew Point Humidity Pressure Visibility Wind Dir Wind Speed Gust Speed Precip Events Conditions
12:14 AM 59.0 °F 49.3 °F 70% 30.04 in 10.0 mi North 4.6 mph - N/A   Clear
12:34 AM 58.5 °F 48.6 °F 70% 30.05 in 10.0 mi NNW 5.8 mph - N/A   Clear
12:55 AM 56.8 °F 49.5 °F 76% 30.05 in 10.0 mi NNW 4.6 mph - N/A   Clear
1:14 AM 56.3 °F 49.1 °F 77% 30.05 in 10.0 mi NNW 4.6 mph - N/A   Clear
1:34 AM 56.3 °F 48.0 °F 74% 30.05 in 10.0 mi North 4.6 mph - N/A   Clear
1:55 AM 55.6 °F 47.3 °F 74% 30.05 in 10.0 mi NNW 4.6 mph - N/A   Clear
2:14 AM 54.7 °F 46.9 °F 75% 30.06 in 10.0 mi NNW 3.5 mph - N/A   Clear
2:34 AM 54.0 °F 46.6 °F 76% 30.06 in 10.0 mi NNW 4.6 mph - N/A   Clear
2:54 AM 53.4 °F 46.6 °F 78% 30.06 in 10.0 mi NW 4.6 mph - N/A   Clear
3:14 AM 52.7 °F 47.3 °F 82% 30.06 in 10.0 mi Calm Calm - N/A   Clear
3:34 AM 52.2 °F 46.9 °F 82% 30.07 in 10.0 mi NW 4.6 mph - N/A   Clear
3:54 AM 51.8 °F 46.4 °F 82% 30.07 in 10.0 mi NNW 3.5 mph - N/A   Clear
4:14 AM 51.8 °F 46.4 °F 82% 30.07 in 10.0 mi NW 4.6 mph - N/A   Clear
4:34 AM 51.1 °F 46.4 °F 84% 30.07 in 10.0 mi NW 5.8 mph - N/A   Clear
4:54 AM 50.9 °F 46.0 °F 83% 30.07 in 10.0 mi NNW 4.6 mph - N/A   Clear
5:14 AM 50.5 °F 45.5 °F 83% 30.07 in 10.0 mi NNW 4.6 mph - N/A   Clear
5:34 AM 50.2 °F 45.0 °F 82% 30.07 in 10.0 mi NNW 5.8 mph - N/A   Clear
5:54 AM 50.0 °F 44.8 °F 82% 30.07 in 10.0 mi North 5.8 mph - N/A   Clear
6:14 AM 49.8 °F 44.6 °F 82% 30.07 in 10.0 mi North 4.6 mph - N/A   Clear
6:34 AM 49.1 °F 44.6 °F 84% 30.07 in 10.0 mi NNW 4.6 mph - N/A   Clear
6:55 AM 48.6 °F 44.2 °F 85% 30.08 in 10.0 mi NW 4.6 mph - N/A   Clear
7:14 AM 48.4 °F 44.2 °F 86% 30.09 in 10.0 mi NNW 4.6 mph - N/A   Clear
7:34 AM 48.2 °F 44.2 °F 86% 30.10 in 10.0 mi NW 3.5 mph - N/A   Clear
7:54 AM 49.1 °F 44.8 °F 85% 30.10 in 10.0 mi NW 4.6 mph - N/A   Clear
8:14 AM 50.0 °F 45.5 °F 85% 30.11 in 10.0 mi NNW 4.6 mph - N/A   Clear
8:35 AM 50.4 °F 45.9 °F 85% 30.11 in 10.0 mi NNW 5.8 mph - N/A   Clear
8:54 AM 51.8 °F 46.0 °F 81% 30.11 in 10.0 mi NNW 6.9 mph - N/A   Clear
9:14 AM 52.9 °F 46.2 °F 78% 30.11 in 10.0 mi North 9.2 mph - N/A   Clear
9:35 AM 53.8 °F 46.6 °F 77% 30.11 in 10.0 mi NNE 8.1 mph - N/A   Scattered Clouds
9:54 AM 54.0 °F 45.9 °F 74% 30.12 in 10.0 mi North 10.4 mph - N/A   Overcast
10:14 AM 54.7 °F 44.8 °F 69% 30.12 in 10.0 mi NNE 10.4 mph 17.3 mph N/A   Mostly Cloudy
10:35 AM 55.9 °F 44.8 °F 66% 30.12 in 10.0 mi North 12.7 mph - N/A   Overcast
10:54 AM 56.8 °F 45.5 °F 66% 30.13 in 10.0 mi NNE 5.8 mph - N/A   Mostly Cloudy
11:14 AM 56.5 °F 44.6 °F 64% 30.13 in 10.0 mi NNE 10.4 mph - N/A   Overcast
11:34 AM 56.1 °F 45.0 °F 66% 30.13 in 10.0 mi North 9.2 mph - N/A   Overcast
11:54 AM 57.2 °F 44.4 °F 62% 30.13 in 10.0 mi North 9.2 mph - N/A   Overcast
12:14 PM 57.6 °F 44.1 °F 61% 30.13 in 10.0 mi North 9.2 mph - N/A   Overcast
12:34 PM 59.0 °F 44.8 °F 59% 30.13 in 10.0 mi NE 8.1 mph - N/A   Overcast
12:54 PM 58.8 °F 42.8 °F 55% 30.13 in 10.0 mi NNW 9.2 mph - N/A   Overcast
1:14 PM 58.3 °F 42.8 °F 56% 30.13 in 10.0 mi North 11.5 mph - N/A   Overcast
1:34 PM 59.7 °F 41.2 °F 50% 30.13 in 10.0 mi North 8.1 mph - N/A   Mostly Cloudy
1:54 PM 61.7 °F 41.5 °F 48% 30.12 in 10.0 mi North 6.9 mph - N/A   Mostly Cloudy
2:14 PM 62.2 °F 41.2 °F 46% 30.12 in 10.0 mi North 8.1 mph 17.3 mph N/A   Scattered Clouds
2:34 PM 59.9 °F 40.6 °F 49% 30.11 in 10.0 mi North 5.8 mph - N/A   Mostly Cloudy
2:54 PM 62.6 °F 41.5 °F 46% 30.11 in 10.0 mi NNW 9.2 mph 17.3 mph N/A   Mostly Cloudy
3:14 PM 61.2 °F 41.2 °F 48% 30.11 in 10.0 mi North 10.4 mph - N/A   Scattered Clouds
3:33 PM 62.6 °F 42.3 °F 47% 30.11 in 10.0 mi NNE 11.5 mph - N/A   Scattered Clouds
3:54 PM 62.1 °F 41.7 °F 47% 30.11 in 10.0 mi North 13.8 mph 17.3 mph N/A   Mostly Cloudy
4:14 PM 61.2 °F 41.5 °F 48% 30.12 in 10.0 mi NE 8.1 mph 17.3 mph N/A   Scattered Clouds
4:34 PM 61.9 °F 40.6 °F 46% 30.11 in 10.0 mi North 8.1 mph 20.7 mph N/A   Mostly Cloudy
4:54 PM 61.5 °F 41.4 °F 48% 30.11 in 10.0 mi NNW 8.1 mph - N/A   Mostly Cloudy
5:15 PM 61.3 °F 40.1 °F 46% 30.11 in 10.0 mi NNE 8.1 mph - N/A   Scattered Clouds
5:34 PM 61.3 °F 40.3 °F 46% 30.11 in 10.0 mi NE 6.9 mph - N/A   Scattered Clouds
5:54 PM 61.2 °F 40.6 °F 47% 30.11 in 10.0 mi North 4.6 mph - N/A   Clear
6:15 PM 60.8 °F 41.0 °F 48% 30.11 in 10.0 mi NNE 4.6 mph - N/A   Clear
6:34 PM 60.8 °F 40.6 °F 47% 30.11 in 10.0 mi North 5.8 mph - N/A   Clear
6:54 PM 60.4 °F 40.5 °F 48% 30.11 in 10.0 mi NNE 5.8 mph - N/A   Clear
7:15 PM 59.4 °F 42.1 °F 53% 30.12 in 10.0 mi NE 5.8 mph - N/A   Clear
7:34 PM 58.1 °F 42.4 °F 56% 30.12 in 10.0 mi NE 3.5 mph - N/A   Clear
7:54 PM 57.2 °F 42.6 °F 58% 30.12 in 10.0 mi NE 3.5 mph - N/A   Clear
8:14 PM 55.4 °F 43.2 °F 63% 30.12 in 7.0 mi Calm Calm - N/A   Clear
8:34 PM 53.8 °F 43.5 °F 68% 30.13 in 7.0 mi Calm Calm - N/A   Clear
8:54 PM 52.2 °F 43.9 °F 73% 30.14 in 10.0 mi Calm Calm - N/A   Clear
9:14 PM 51.8 °F 44.1 °F 75% 30.14 in 10.0 mi Calm Calm - N/A   Clear
9:34 PM 50.9 °F 43.7 °F 76% 30.15 in 10.0 mi East 3.5 mph - N/A   Clear
9:55 PM 49.5 °F 43.0 °F 78% 30.15 in 10.0 mi WNW 4.6 mph - N/A   Clear
10:14 PM 48.4 °F 44.1 °F 85% 30.15 in 10.0 mi Calm Calm - N/A   Clear
10:34 PM 47.1 °F 43.3 °F 87% 30.15 in 10.0 mi Calm Calm - N/A   Clear
10:55 PM 47.7 °F 43.7 °F 86% 30.15 in 10.0 mi Calm Calm - N/A   Clear
11:14 PM 47.7 °F 43.7 °F 86% 30.15 in 10.0 mi Calm Calm - N/A   Clear
11:34 PM 46.0 °F 43.0 °F 89% 30.15 in 10.0 mi Calm Calm - N/A   Clear
11:54 PM 46.2 °F 42.4 °F 87% 30.15 in 10.0 mi Calm Calm - N/A   Clear